This is the latest recevied weather packets stored in our database for station/object WB3IGR. If no packets are shown the sender has not sent any weather packets the latest 10 day(s).
| Time | Temp. | Humidity | Pressure | Rain* | Wind** | Luminosity | Snow |
|---|---|---|---|---|---|---|---|
| 1778026175 | 23.33° C | 48% | 1009.6 hPa | 0 mm | - | 0 W/m² | - |
| 1778025873 | 23.33° C | 49% | 1009.9 hPa | 0 mm | - | 0 W/m² | - |
| 1778025570 | 23.89° C | 47% | 1009.7 hPa | 0 mm | - | 0 W/m² | - |
| 1778025268 | 23.89° C | 48% | 1009.7 hPa | 0 mm | - | 2 W/m² | - |
| 1778024964 | 23.89° C | 48% | 1009.7 hPa | 0 mm | - | 3 W/m² | - |
| 1778024662 | 23.89° C | 48% | 1009.6 hPa | 0 mm | - | 6 W/m² | - |
| 1778024358 | 23.89° C | 48% | 1009.7 hPa | 0 mm | - | 10 W/m² | - |
| 1778024056 | 24.44° C | 47% | 1009.5 hPa | 0 mm | - | 13 W/m² | - |
| 1778023753 | 24.44° C | 47% | 1009.5 hPa | 0 mm | - | 20 W/m² | - |
| 1778023451 | 25° C | 44% | 1009.4 hPa | 0 mm | - | 27 W/m² | - |
| 1778023147 | 25.56° C | 38% | 1009.5 hPa | 0 mm | - | 34 W/m² | - |
| 1778022845 | 25.56° C | 38% | 1009.2 hPa | 0 mm | - | 39 W/m² | - |
| 1778022543 | 25.56° C | 38% | 1009.3 hPa | 0 mm | - | 49 W/m² | - |
| 1778022241 | 25.56° C | 38% | 1009.3 hPa | 0 mm | - | 54 W/m² | - |
| 1778021937 | 25.56° C | 37% | 1009.3 hPa | 0 mm | - | 55 W/m² | - |
| 1778021634 | 26.11° C | 37% | 1009.1 hPa | 0 mm | - | 57 W/m² | - |
| 1778021329 | 26.11° C | 37% | 1009.3 hPa | 0 mm | - | 62 W/m² | - |
| 1778021027 | 26.11° C | 37% | 1009.2 hPa | 0 mm | - | 72 W/m² | - |
| 1778020724 | 26.67° C | 38% | 1009.4 hPa | 0 mm | - | 113 W/m² | - |
| 1778020421 | 26.67° C | 37% | 1009.5 hPa | 0 mm | - | 164 W/m² | - |
| 1778020117 | 26.67° C | 38% | 1009.6 hPa | 0 mm | - | 184 W/m² | - |
| 1778019813 | 26.11° C | 38% | 1009.3 hPa | 0 mm | - | 173 W/m² | - |
| 1778019510 | 26.11° C | 39% | 1009.6 hPa | 0 mm | - | 148 W/m² | - |
| 1778019207 | 26.11° C | 38% | 1009.6 hPa | 0 mm | - | 136 W/m² | - |
| 1778018904 | 26.11° C | 39% | 1009.5 hPa | 0 mm | - | 105 W/m² | - |
* Rain latest hour (hover to see other rain measurements)
** Current wind speed in m/s (hover to see current wind gust speed)